Meteo Giornale » Osservazioni meteo Svizzera » Sion

ore: 05:50 - Osservazioni Meteo Sion
Lat. 46° 13' N Lon. 7° 20' E Alt. 482 metri s.l.m.

sereno Europe/Zurich

11 °C

Sereno

Temp. 24 Ore

11 °C

17 °C

Nord

0 Km/h

Dew point 10 °C

Umidità 93 %

Visibilità  10 Km

Il sole sorge alle ore 07:19

Il sole tramonta alle ore 19:24

Data e Ora Cielo e Fenomeni T °C DP °C Um. % Pres. hPa Vis. km Vento km/h
Oggi h: 05:50 sereno Sereno 11 10 93 1013 10 N 0
Oggi h: 05:20 coperto_pioggia Pioggia Debole 12 10 87 1013 10 N 1.8
Oggi h: 04:50 sereno Sereno 12 10 87 1013 10 N 1.8
Oggi h: 04:20 sereno Sereno 12 10 87 1013 10 N 3.7
Oggi h: 03:50 coperto_pioggia Pioggia Debole 12 10 87 1013 10 E 7.4
Oggi h: 03:20 coperto_pioggia Pioggia Debole 12 10 87 1013 10 N 5.5
Oggi h: 02:50 sereno Sereno 12 10 87 1013 10 E 7.4
Oggi h: 02:20 sereno Sereno 12 10 87 1014 10 N 1.8
Oggi h: 01:50 sereno Sereno 12 10 87 1014 10 N 5.5
Oggi h: 01:20 sereno Sereno 12 10 87 1014 10 N 1.8
Oggi h: 00:50 sereno Sereno 12 10 87 1014 10 N 0
Oggi h: 00:20 sereno Sereno 12 10 87 1014 10 N 3.7
Ieri h: 23:50 sereno Sereno 12 10 87 1014 10 N 0
Ieri h: 23:20 sereno Sereno 13 10 81 1014 10 N 1.8
Ieri h: 22:50 sereno Sereno 13 11 87 1014 10 N 3.7
Ieri h: 22:20 sereno Sereno 13 11 87 1014 10 N 3.7
Ieri h: 21:50 sereno Sereno 14 11 82 1014 10 N 3.7
Ieri h: 21:20 sereno Sereno 14 12 87 1014 10 N 3.7
Ieri h: 20:50 sereno Sereno 14 11 82 1014 10 N 1.8
Ieri h: 20:20 sereno Sereno 14 11 82 1013 10 N 5.5
Ieri h: 19:50 molto_nuvoloso Molto Nuvoloso 15 12 82 1013 10 N 1.8
Ieri h: 19:20 molto_nuvoloso Molto Nuvoloso 15 11 76 1013 10 N 3.7
Ieri h: 18:50 molto_nuvoloso Molto Nuvoloso 15 12 82 1013 10 O 7.4
Ieri h: 18:20 molto_nuvoloso Molto Nuvoloso 16 12 77 1013 10 O 7.4
Ieri h: 17:50 nuvoloso_piovaschi Debole Rovescio di Pioggia 16 12 77 1013 10 O 9.3
Ieri h: 17:20 coperto_pioggia Pioggia Debole 16 11 72 1013 10 N 5.5
Ieri h: 16:50 molto_nuvoloso Molto Nuvoloso 17 9 59 1013 10 N 1.8
Ieri h: 15:50 molto_nuvoloso Molto Nuvoloso 17 10 63 1013 10 N 3.7
Ieri h: 15:20 molto_nuvoloso Molto Nuvoloso 17 10 63 1014 10 N 3.7
Ieri h: 14:50 molto_nuvoloso Molto Nuvoloso 16 11 72 1014 10 N 3.7
Ieri h: 14:20 molto_nuvoloso Molto Nuvoloso 15 11 76 1014 10 E/NE 7.4
Ieri h: 13:50 molto_nuvoloso Molto Nuvoloso 15 11 76 1015 10 E 7.4
Ieri h: 13:20 molto_nuvoloso Molto Nuvoloso 14 11 82 1015 10 N 5.5
Ieri h: 12:50 molto_nuvoloso Molto Nuvoloso 14 11 82 1015 10 E/NE 9.3
Ieri h: 12:20 coperto_pioggia Pioggia Debole 14 11 82 1015 10 E 11.1
Ieri h: 11:50 coperto_pioggia Pioggia Debole 13 11 87 1015 10 E/NE 11.1
Ieri h: 11:20 coperto_pioggia Pioggia Debole 13 11 87 1016 10 E/NE 9.3
Ieri h: 10:50 coperto_pioggia Pioggia Debole 13 11 87 1016 10 E 7.4
Ieri h: 10:20 coperto_pioggia Pioggia Debole 13 11 87 1016 10 E 7.4
Ieri h: 09:50 coperto_pioggia Pioggia Debole 12 11 93 1015 10 N 3.7
Ieri h: 09:20 coperto_pioggia Pioggia 12 10 87 1015 8 N 3.7
Ieri h: 08:50 coperto_pioggia Pioggia Debole 12 10 87 1015 9 N 0
Ieri h: 08:20 coperto_pioggia Pioggia Debole 12 10 87 1015 10 N 1.8
Ieri h: 07:50 coperto_pioggia Pioggia Debole 12 10 87 1014 10 N 1.8
Ieri h: 07:20 coperto_pioggia Pioggia Debole 12 10 87 1014 10 N 3.7
Ieri h: 06:50 molto_nuvoloso Molto Nuvoloso 13 10 81 1014 10 N 1.8